Weather Roundup
Issued by NWS Springfield, MO

Home | Current Version | Previous Version | Text Only | Print | Product List | Glossary On
Versions: 1 2 3 4 5 6 7 8 9 10 11 12 13 14 15 16 17 18 19 20 21 22 23 24 25 26 27 28 29 30 31 32 33 34 35 36 37 38 39 40 41 42 43 44 45 46 47 48 49 50
000
NZUS99 KSGF 250959
HRRSGF

HOURLY WEATHER
NATIONAL WEATHER SERVICE SPRINGFIELD MO
500 AM CDT MON MAY 25 2015

......SGF CWA......

CITY           SKY/WX    TMP DP  RH WIND       PRES   REMARKS
SPRINGFIELD    PTCLDY    61  59  93 S10       29.93R
JOPLIN         CLOUDY    63  61  93 S9        29.92R
WEST PLAINS    CLOUDY    68  65  90 S6        29.98R
ROLLA          CLOUDY    64  61  90 SW12      29.92R
OSAGE BEACH    CLOUDY    63  61  94 SW5       29.93R

......SURROUNDING SGF CWA......

CITY           SKY/WX    TMP DP  RH WIND       PRES   REMARKS
CHANUTE        CLOUDY    61  61 100 S13G18    29.87S FOG
PARSONS        CLOUDY    62  62 100 SE6       29.88F FOG
COFFEYVILLE    CLOUDY    62  62 100 SE6       29.88S FOG
EMPORIA        PTCLDY    58  57  97 S12       29.83R
SILOAM SPRINGS CLEAR     57  54  88 SE6       29.94F
HARRISON AR    PTCLDY    61  60  97 S5        29.97R
NEAR YELLVILLE PTCLDY    63  63 100 CALM      29.94S

......KANSAS AND MISSOURI......

CITY           SKY/WX    TMP DP  RH WIND       PRES   REMARKS
KANSAS CTY INT CLOUDY    61  60  97 S9        29.87R
DOWNTOWN KC    MOCLDY    63  60  90 S6        29.86R
COLUMBIA       LGT RAIN  63  62  97 W14G23    29.90R FOG
SEDALIA        PTCLDY    62  60  93 SW9       29.90R
ST JOSEPH      CLOUDY    63  61  93 S13       29.84R
ST LOUIS       CLOUDY    71  65  81 S12       29.90R
SPIRIT OF STL  CLOUDY    69  66  90 S7        29.88R
KIRKSVILLE     RAIN      63  62  97 W9        29.84R FOG
WICHITA        CLOUDY    62  60  93 S8        29.85R
TOPEKA         MOCLDY    61  60  97 CALM      29.85R
OLATHE         MOCLDY    60  60 100 S9        29.88R

......TENNESSEE......

CITY           SKY/WX    TMP DP  RH WIND       PRES   REMARKS
MEMPHIS        LGT RAIN  69  66  90 S9        30.03R
NASHVILLE      CLOUDY    72  59  63 S13G22    30.10S

......ARKANSAS.......

CITY           SKY/WX    TMP DP  RH WIND       PRES   REMARKS
FAYETTEVILLE   PTCLDY    59  59 100 CALM      29.94S FOG
FT SMITH       CLOUDY    64  62  93 NE6       29.93S FOG
LITTLE ROCK    CLOUDY    71  67  87 S5        29.99R FOG

......OKLAHOMA.......

CITY           SKY/WX    TMP DP  RH WIND       PRES   REMARKS
TULSA          CLOUDY    64  64 100 SE3       29.87R
PONCA CITY     CLOUDY    65  64  97 SE16      29.83S FOG
MCALESTER      CLOUDY    70  68  93 SE7       29.91R
OKLAHOMA CITY  CLOUDY    66  65  96 S13       29.84S

......IOWA............

CITY           SKY/WX    TMP DP  RH WIND       PRES   REMARKS
DES MOINES     LGT RAIN  64  61  90 SW10      29.76R
QUAD CITIES    CLOUDY    66  63  90 W10       29.76R

......ILLINOIS........

CITY           SKY/WX    TMP DP  RH WIND       PRES   REMARKS
QUINCY         CLOUDY    65  63  93 SW12      29.84R
CHICAGO        CLOUDY    71  62  73 S21G29    29.83F




USA.gov is the U.S. government's official web portal to all federal, state and local government web resources and services.